This is the latest recevied weather packets stored in our database for station/object N8VDS-10. If no packets are shown the sender has not sent any weather packets the latest 10 day(s).
| Time | Temp. | Humidity | Pressure | Rain* | Wind** | Luminosity | Snow |
|---|---|---|---|---|---|---|---|
| 1777462690 | 8.33° C | 87% | 1017.5 hPa | 0 mm | - | 16 W/m² | - |
| 1777462386 | 8.33° C | 86% | 1017.7 hPa | 0 mm | - | 12 W/m² | - |
| 1777462082 | 8.33° C | 84% | 1017.6 hPa | 0 mm | - | 4 W/m² | - |
| 1777461779 | 8.33° C | 85% | 1017.5 hPa | 0 mm | - | 4 W/m² | - |
| 1777461474 | 8.33° C | 84% | 1017.5 hPa | 0 mm | - | 4 W/m² | - |
| 1777461171 | 8.33° C | 83% | 1017.4 hPa | 0 mm | - | 2 W/m² | - |
| 1777460866 | 8.89° C | 82% | 1017.2 hPa | 0 mm | - | 3 W/m² | - |
| 1777460562 | 8.89° C | 81% | 1017.2 hPa | 0 mm | - | 4 W/m² | - |
| 1777460258 | 8.89° C | 80% | 1016.8 hPa | 0 mm | - | 5 W/m² | - |
| 1777459955 | 8.89° C | 79% | 1016.8 hPa | 0 mm | - | 3 W/m² | - |
| 1777459652 | 9.44° C | 78% | 1016.7 hPa | 0 mm | - | 2 W/m² | - |
| 1777459349 | 9.44° C | 77% | 1016.4 hPa | 0 mm | - | 1 W/m² | - |
| 1777459047 | 9.44° C | 77% | 1016 hPa | 0 mm | - | 1 W/m² | - |
| 1777458744 | 9.44° C | 76% | 1015.9 hPa | 0 mm | - | 1 W/m² | - |
| 1777458440 | 9.44° C | 76% | 1016 hPa | 0 mm | - | 0 W/m² | - |
| 1777458137 | 9.44° C | 77% | 1015.8 hPa | 0 mm | - | 0 W/m² | - |
| 1777457832 | 9.44° C | 76% | 1015.5 hPa | 0 mm | - | 0 W/m² | - |
| 1777457527 | 9.44° C | 77% | 1015.5 hPa | 0 mm | - | 0 W/m² | - |
| 1777457223 | 9.44° C | 76% | 1015.8 hPa | 0 mm | - | 0 W/m² | - |
| 1777456919 | 9.44° C | 77% | 1015.7 hPa | 0 mm | - | 0 W/m² | - |
| 1777456614 | 9.44° C | 79% | 1015.8 hPa | 0 mm | - | 0 W/m² | - |
| 1777456310 | 9.44° C | 79% | 1016.1 hPa | 0 mm | - | 0 W/m² | - |
| 1777456005 | 9.44° C | 80% | 1016 hPa | 0 mm | - | 0 W/m² | - |
| 1777455702 | 9.44° C | 78% | 1016.3 hPa | 0 mm | - | 0 W/m² | - |
| 1777455399 | 9.44° C | 79% | 1016.6 hPa | 0 mm | - | 0 W/m² | - |
* Rain latest hour (hover to see other rain measurements)
** Current wind speed in m/s (hover to see current wind gust speed)